TimeCDT,TemperatureF,Dew PointF,Humidity,Sea Level PressureIn,VisibilityMPH,Wind Direction,Wind SpeedMPH,Gust SpeedMPH,PrecipitationIn,Events,Conditions,WindDirDegrees,DateUTC
12:15 AM,55.4,28.4,36,29.91,10.0,SSW,15.0,-,N/A,,Clear,200,2012-10-11 05:15:00
12:35 AM,55.4,30.2,38,29.90,10.0,SSW,15.0,-,N/A,,Clear,200,2012-10-11 05:35:00
12:55 AM,55.4,28.4,36,29.90,10.0,SSW,16.1,-,N/A,,Clear,200,2012-10-11 05:55:00
1:15 AM,55.4,28.4,36,29.90,10.0,SSW,19.6,25.3,N/A,,Clear,200,2012-10-11 06:15:00
1:35 AM,55.4,28.4,36,29.90,10.0,SSW,17.3,25.3,N/A,,Clear,200,2012-10-11 06:35:00
1:55 AM,53.6,28.4,38,29.89,10.0,SSW,18.4,24.2,N/A,,Clear,200,2012-10-11 06:55:00
2:15 AM,53.6,28.4,38,29.89,10.0,SSW,16.1,23.0,N/A,,Clear,200,2012-10-11 07:15:00
2:55 AM,53.6,28.4,38,29.90,10.0,SSW,16.1,21.9,N/A,,Clear,210,2012-10-11 07:55:00
3:15 AM,53.6,28.4,38,29.90,10.0,SSW,15.0,-,N/A,,Clear,200,2012-10-11 08:15:00
3:35 AM,51.8,28.4,41,29.89,10.0,SSW,16.1,-,N/A,,Clear,200,2012-10-11 08:35:00
3:55 AM,51.8,28.4,41,29.89,10.0,SSW,12.7,-,N/A,,Clear,200,2012-10-11 08:55:00
4:15 AM,51.8,28.4,41,29.90,10.0,SSW,11.5,-,N/A,,Clear,200,2012-10-11 09:15:00
4:35 AM,51.8,32.0,47,29.93,10.0,West,8.1,-,N/A,,Clear,270,2012-10-11 09:35:00
4:55 AM,51.8,30.2,44,29.93,10.0,WSW,6.9,-,N/A,,Clear,240,2012-10-11 09:55:00
5:15 AM,51.8,32.0,47,29.94,10.0,WSW,11.5,-,N/A,,Clear,240,2012-10-11 10:15:00
5:35 AM,51.8,30.2,44,29.94,10.0,WSW,10.4,-,N/A,,Clear,240,2012-10-11 10:35:00
5:55 AM,51.8,32.0,47,29.96,10.0,West,11.5,-,N/A,,Clear,280,2012-10-11 10:55:00
6:15 AM,48.2,32.0,54,29.97,10.0,NW,11.5,-,N/A,,Clear,310,2012-10-11 11:15:00
6:35 AM,46.4,30.2,53,29.98,10.0,NW,13.8,19.6,N/A,,Clear,310,2012-10-11 11:35:00
6:55 AM,44.6,30.2,57,29.99,10.0,NW,11.5,19.6,N/A,,Clear,310,2012-10-11 11:55:00
7:15 AM,44.6,32.0,61,30.01,10.0,NW,10.4,-,N/A,,Clear,310,2012-10-11 12:15:00
7:35 AM,42.8,32.0,66,30.03,10.0,NW,10.4,-,N/A,,Clear,310,2012-10-11 12:35:00
7:55 AM,44.6,32.0,61,30.04,10.0,NNW,11.5,-,N/A,,Clear,340,2012-10-11 12:55:00
8:15 AM,46.4,33.8,62,30.06,10.0,North,13.8,17.3,N/A,,Clear,360,2012-10-11 13:15:00
8:35 AM,44.6,32.0,61,30.09,10.0,North,11.5,20.7,N/A,,Clear,350,2012-10-11 13:35:00
8:55 AM,44.6,32.0,61,30.11,10.0,North,17.3,-,N/A,,Clear,350,2012-10-11 13:55:00
9:15 AM,44.6,32.0,61,30.11,10.0,North,15.0,24.2,N/A,,Clear,360,2012-10-11 14:15:00
9:35 AM,44.6,33.8,66,30.13,10.0,North,17.3,24.2,N/A,,Clear,10,2012-10-11 14:35:00
9:55 AM,44.6,33.8,66,30.13,10.0,North,17.3,23.0,N/A,,Clear,10,2012-10-11 14:55:00
10:15 AM,46.4,32.0,57,30.15,10.0,NNE,18.4,24.2,N/A,,Clear,20,2012-10-11 15:15:00
10:35 AM,46.4,30.2,53,30.16,10.0,NNE,18.4,-,N/A,,Clear,20,2012-10-11 15:35:00
10:55 AM,46.4,30.2,53,30.18,10.0,North,19.6,25.3,N/A,,Clear,10,2012-10-11 15:55:00
11:15 AM,46.4,30.2,53,30.17,10.0,NNE,18.4,24.2,N/A,,Clear,20,2012-10-11 16:15:00
11:35 AM,48.2,30.2,50,30.19,10.0,North,18.4,24.2,N/A,,Clear,360,2012-10-11 16:35:00
11:55 AM,48.2,30.2,50,30.20,10.0,North,17.3,24.2,N/A,,Clear,10,2012-10-11 16:55:00
12:15 PM,48.2,28.4,46,30.21,10.0,NNE,17.3,25.3,N/A,,Clear,30,2012-10-11 17:15:00
12:55 PM,48.2,26.6,43,30.24,10.0,NNE,16.1,21.9,N/A,,Clear,20,2012-10-11 17:55:00
1:15 PM,48.2,26.6,43,30.23,10.0,NNE,16.1,20.7,N/A,,Clear,20,2012-10-11 18:15:00
1:35 PM,50.0,26.6,40,30.23,10.0,North,16.1,21.9,N/A,,Clear,10,2012-10-11 18:35:00
1:55 PM,50.0,24.8,37,30.24,10.0,NNE,17.3,21.9,N/A,,Clear,20,2012-10-11 18:55:00
2:15 PM,51.8,24.8,35,30.24,10.0,NNE,17.3,-,N/A,,Clear,20,2012-10-11 19:15:00
2:35 PM,51.8,24.8,35,30.25,10.0,North,17.3,21.9,N/A,,Clear,10,2012-10-11 19:35:00
2:55 PM,51.8,24.8,35,30.25,10.0,North,17.3,23.0,N/A,,Clear,10,2012-10-11 19:55:00
3:15 PM,51.8,26.6,38,30.25,10.0,NNW,19.6,-,N/A,,Clear,340,2012-10-11 20:15:00
3:55 PM,51.8,26.6,38,30.26,10.0,North,17.3,24.2,N/A,,Clear,350,2012-10-11 20:55:00
4:15 PM,51.8,26.6,38,30.25,10.0,North,13.8,20.7,N/A,,Clear,10,2012-10-11 21:15:00
4:35 PM,50.0,26.6,40,30.25,10.0,North,15.0,20.7,N/A,,Clear,10,2012-10-11 21:35:00
5:15 PM,50.0,26.6,40,30.26,10.0,NNE,13.8,18.4,N/A,,Clear,20,2012-10-11 22:15:00
5:35 PM,48.2,26.6,43,30.27,10.0,North,15.0,-,N/A,,Clear,10,2012-10-11 22:35:00
5:55 PM,48.2,26.6,43,30.27,10.0,North,10.4,-,N/A,,Clear,10,2012-10-11 22:55:00
6:15 PM,48.2,26.6,43,30.27,10.0,North,10.4,-,N/A,,Clear,360,2012-10-11 23:15:00
6:35 PM,46.4,26.6,46,30.28,10.0,NNE,15.0,-,N/A,,Clear,20,2012-10-11 23:35:00
6:55 PM,46.4,24.8,43,30.29,10.0,NNE,10.4,-,N/A,,Clear,20,2012-10-11 23:55:00
7:15 PM,44.6,24.8,46,30.30,10.0,North,8.1,-,N/A,,Clear,10,2012-10-12 00:15:00
7:35 PM,42.8,24.8,49,30.31,10.0,North,9.2,-,N/A,,Clear,10,2012-10-12 00:35:00
7:55 PM,42.8,23.0,46,30.33,10.0,NNE,10.4,-,N/A,,Clear,20,2012-10-12 00:55:00
8:15 PM,41.0,23.0,49,30.34,10.0,NNE,8.1,-,N/A,,Clear,20,2012-10-12 01:15:00
8:35 PM,41.0,21.2,45,30.35,10.0,NNE,9.2,-,N/A,,Clear,20,2012-10-12 01:35:00
8:55 PM,39.2,21.2,49,30.36,10.0,NNE,8.1,-,N/A,,Clear,20,2012-10-12 01:55:00
9:15 PM,39.2,23.0,52,30.36,10.0,North,8.1,-,N/A,,Clear,10,2012-10-12 02:15:00
9:35 PM,37.4,21.2,52,30.36,10.0,North,8.1,-,N/A,,Clear,10,2012-10-12 02:35:00
9:55 PM,37.4,23.0,56,30.37,10.0,North,8.1,-,N/A,,Clear,10,2012-10-12 02:55:00
10:55 PM,35.6,21.2,56,30.39,10.0,North,5.8,-,N/A,,Clear,10,2012-10-12 03:55:00
11:15 PM,33.8,21.2,60,30.39,10.0,NNE,4.6,-,N/A,,Clear,20,2012-10-12 04:15:00
11:35 PM,35.6,21.2,56,30.40,10.0,NNE,4.6,-,N/A,,Clear,20,2012-10-12 04:35:00
11:55 PM,35.6,21.2,56,30.40,10.0,North,4.6,-,N/A,,Clear,10,2012-10-12 04:55:00